| time (UTC) | temp F | wind direction | speed MPH | gust MPH | rain 1hr in | rain 24hr in | rain mn in | humidity % | barometer mb |
| 20260507042003 | 60 | 69 | 1.0 | 3.0 | 0.00 | 0.00 | 0.00 | 79 | 1004.0 |
| 20260507041003 | 59 | 135 | 1.0 | 2.0 | 0.00 | 0.00 | 0.00 | 80 | 1004.0 |
| 20260507040005 | 59 | 114 | 2.0 | 3.0 | 0.00 | 0.00 | 0.00 | 81 | 1003.0 |
| 20260507035004 | 58 | 114 | 2.0 | 3.0 | 0.00 | 0.00 | 0.00 | 82 | 1003.0 |
| 20260507034003 | 58 | 111 | 2.0 | 3.0 | 0.00 | 0.00 | 0.00 | 82 | 1003.0 |
| 20260507033009 | 58 | 108 | 2.0 | 3.0 | 0.00 | 0.00 | 0.00 | 82 | 1004.0 |
| 20260507032006 | 58 | 105 | 1.0 | 2.0 | 0.00 | 0.00 | 0.00 | 82 | 1003.0 |
| 20260507031003 | 58 | 112 | 2.0 | 3.0 | 0.00 | 0.00 | 0.00 | 82 | 1003.0 |
| 20260507030006 | 58 | 115 | 2.0 | 4.0 | 0.00 | 0.00 | 0.00 | 82 | 1003.0 |
| 20260507025002 | 58 | 115 | 2.0 | 5.0 | 0.00 | 0.00 | 0.00 | 83 | 1004.0 |
| 20260507024003 | 58 | 120 | 2.0 | 3.0 | 0.00 | 0.00 | 0.00 | 83 | 1004.0 |
| 20260507023002 | 57 | 112 | 2.0 | 2.0 | 0.00 | 0.00 | 0.00 | 83 | 1003.0 |
| 20260507022002 | 57 | 113 | 2.0 | 4.0 | 0.00 | 0.00 | 0.00 | 83 | 1003.0 |
| 20260507021002 | 57 | 109 | 2.0 | 3.0 | 0.00 | 0.00 | 0.00 | 84 | 1003.0 |
| 20260507020003 | 57 | 112 | 2.0 | 3.0 | 0.00 | 0.00 | 0.00 | 84 | 1003.0 |
| 20260507015002 | 57 | 103 | 2.0 | 2.0 | 0.00 | 0.00 | 0.00 | 84 | 1003.0 |
| 20260507014002 | 56 | 90 | 1.0 | 2.0 | 0.00 | 0.00 | 0.00 | 84 | 1004.0 |
| 20260507013002 | 56 | 106 | 2.0 | 3.0 | 0.00 | 0.00 | 0.00 | 84 | 1004.0 |
| 20260507012002 | 56 | 105 | 1.0 | 2.0 | 0.00 | 0.00 | 0.00 | 83 | 1004.0 |
| 20260507011002 | 56 | 108 | 2.0 | 3.0 | 0.00 | 0.00 | 0.00 | 83 | 1004.0 |
| 20260507010002 | 57 | 111 | 2.0 | 3.0 | 0.00 | 0.00 | 0.00 | 83 | 1004.0 |
| 20260507005002 | 57 | 113 | 2.0 | 2.0 | 0.00 | 0.00 | 0.00 | 82 | 1004.0 |
| 20260507004002 | 57 | 110 | 2.0 | 3.0 | 0.00 | 0.00 | 0.00 | 82 | 1004.0 |
| 20260507003002 | 57 | 109 | 2.0 | 3.0 | 0.00 | 0.00 | 0.00 | 82 | 1004.0 |
| 20260507002002 | 57 | 109 | 2.0 | 3.0 | 0.00 | 0.00 | 0.00 | 81 | 1004.0 |
| 20260507001002 | 58 | 114 | 2.0 | 3.0 | 0.00 | 0.00 | 0.00 | 81 | 1004.0 |
| 20260507000002 | 58 | 112 | 2.0 | 3.0 | 0.00 | 0.00 | 0.00 | 81 | 1004.0 |
| 20260506235002 | 58 | 117 | 3.0 | 4.0 | 0.00 | 0.00 | 0.00 | 81 | 1004.0 |
| 20260506234002 | 58 | 114 | 2.0 | 3.0 | 0.00 | 0.00 | 0.00 | 80 | 1004.0 |
| 20260506233002 | 58 | 116 | 2.0 | 3.0 | 0.00 | 0.00 | 0.00 | 80 | 1004.0 |
| 20260506232001 | 58 | 115 | 2.0 | 3.0 | 0.00 | 0.00 | 0.00 | 79 | 1004.0 |
| 20260506231002 | 59 | 107 | 2.0 | 3.0 | 0.00 | 0.00 | 0.00 | 79 | 1004.0 |
| 20260506230002 | 59 | 114 | 2.0 | 3.0 | 0.00 | 0.00 | 0.00 | 78 | 1004.0 |
| 20260506225002 | 59 | 114 | 2.0 | 3.0 | 0.00 | 0.00 | 0.00 | 78 | 1004.0 |
| 20260506224002 | 60 | 114 | 2.0 | 3.0 | 0.00 | 0.00 | 0.00 | 77 | 1004.0 |
| 20260506223002 | 60 | 113 | 2.0 | 3.0 | 0.00 | 0.00 | 0.00 | 76 | 1004.0 |
| 20260506222002 | 60 | 115 | 2.0 | 3.0 | 0.00 | 0.00 | 0.00 | 76 | 1004.0 |
| 20260506221002 | 60 | 113 | 2.0 | 2.0 | 0.00 | 0.00 | 0.00 | 75 | 1004.0 |
| 20260506220002 | 60 | 114 | 2.0 | 2.0 | 0.00 | 0.00 | 0.00 | 75 | 1004.0 |
| 20260506215004 | 61 | 113 | 2.0 | 3.0 | 0.00 | 0.00 | 0.00 | 74 | 1004.0 |
| 20260506214002 | 61 | 112 | 2.0 | 3.0 | 0.00 | 0.00 | 0.00 | 73 | 1004.0 |
| 20260506213002 | 62 | 113 | 2.0 | 3.0 | 0.00 | 0.00 | 0.00 | 72 | 1004.0 |
| 20260506212002 | 62 | 117 | 2.0 | 3.0 | 0.00 | 0.00 | 0.00 | 70 | 1004.0 |
| 20260506211002 | 63 | 117 | 2.0 | 2.0 | 0.00 | 0.00 | 0.00 | 70 | 1004.0 |
| 20260506210002 | 63 | 118 | 2.0 | 3.0 | 0.00 | 0.00 | 0.00 | 69 | 1004.0 |
| 20260506205002 | 64 | 117 | 2.0 | 3.0 | 0.00 | 0.00 | 0.00 | 68 | 1004.0 |
| 20260506204002 | 64 | 119 | 2.0 | 3.0 | 0.00 | 0.00 | 0.00 | 67 | 1004.0 |
| 20260506203002 | 65 | 121 | 2.0 | 2.0 | 0.00 | 0.00 | 0.00 | 66 | 1004.0 |
| 20260506202003 | 65 | 110 | 2.0 | 2.0 | 0.00 | 0.00 | 0.00 | 64 | 1004.0 |
| 20260506201002 | 66 | 90 | 1.0 | 3.0 | 0.00 | 0.00 | 0.00 | 63 | 1004.0 |
| 20260506200002 | 66 | 90 | 1.0 | 3.0 | 0.00 | 0.00 | 0.00 | 62 | 1004.0 |
| 20260506195002 | 67 | 90 | 1.0 | 3.0 | 0.00 | 0.00 | 0.00 | 62 | 1004.0 |
| 20260506194002 | 67 | 100 | 2.0 | 3.0 | 0.00 | 0.00 | 0.00 | 61 | 1004.0 |
| 20260506193002 | 68 | 106 | 2.0 | 4.0 | 0.00 | 0.00 | 0.00 | 61 | 1004.0 |
| 20260506192001 | 68 | 90 | 2.0 | 4.0 | 0.00 | 0.00 | 0.00 | 60 | 1004.0 |
| 20260506191002 | 69 | 90 | 2.0 | 4.0 | 0.00 | 0.00 | 0.00 | 59 | 1004.0 |
| 20260506190002 | 69 | 90 | 2.0 | 3.0 | 0.00 | 0.00 | 0.00 | 58 | 1004.0 |
| 20260506185003 | 69 | 42 | 2.0 | 4.0 | 0.00 | 0.00 | 0.00 | 58 | 1004.0 |
| 20260506184002 | 70 | 90 | 1.0 | 4.0 | 0.00 | 0.00 | 0.00 | 57 | 1003.0 |
| 20260506183002 | 71 | 104 | 2.0 | 4.0 | 0.00 | 0.00 | 0.00 | 56 | 1003.0 |
| 20260506182002 | 71 | 90 | 2.0 | 4.0 | 0.00 | 0.00 | 0.00 | 55 | 1003.0 |
| 20260506181002 | 72 | 90 | 2.0 | 5.0 | 0.00 | 0.00 | 0.00 | 54 | 1003.0 |
| 20260506180002 | 72 | 90 | 2.0 | 4.0 | 0.00 | 0.00 | 0.00 | 53 | 1003.0 |
| 20260506175002 | 73 | 105 | 2.0 | 3.0 | 0.00 | 0.00 | 0.00 | 53 | 1003.0 |
| 20260506174002 | 73 | 65 | 2.0 | 4.0 | 0.00 | 0.00 | 0.00 | 52 | 1003.0 |
| 20260506173003 | 74 | 16 | 2.0 | 5.0 | 0.00 | 0.00 | 0.00 | 51 | 1003.0 |
| 20260506172002 | 74 | 349 | 2.0 | 5.0 | 0.00 | 0.00 | 0.00 | 50 | 1003.0 |
| 20260506171002 | 75 | 90 | 2.0 | 5.0 | 0.00 | 0.00 | 0.00 | 49 | 1002.0 |
| 20260506170002 | 76 | 41 | 3.0 | 6.0 | 0.00 | 0.00 | 0.00 | 48 | 1002.0 |
| 20260506165002 | 76 | 19 | 3.0 | 6.0 | 0.00 | 0.00 | 0.00 | 47 | 1002.0 |
| 20260506164003 | 76 | 19 | 3.0 | 7.0 | 0.00 | 0.00 | 0.00 | 47 | 1002.0 |
| 20260506163003 | 77 | 11 | 3.0 | 8.0 | 0.00 | 0.00 | 0.00 | 45 | 1002.0 |
| 20260506161002 | 78 | 349 | 3.0 | 11.0 | 0.00 | 0.00 | 0.00 | 44 | 1002.0 |
| 20260506160002 | 79 | 333 | 3.0 | 8.0 | 0.00 | 0.00 | 0.00 | 44 | 1002.0 |
| 20260506155002 | 79 | 315 | 3.0 | 9.0 | 0.00 | 0.00 | 0.00 | 44 | 1002.0 |
| 20260506154003 | 78 | 287 | 2.0 | 6.0 | 0.00 | 0.00 | 0.00 | 44 | 1002.0 |
| 20260506153002 | 79 | 320 | 3.0 | 8.0 | 0.00 | 0.00 | 0.00 | 43 | 1002.0 |
| 20260506152002 | 79 | 319 | 4.0 | 12.0 | 0.00 | 0.00 | 0.00 | 42 | 1002.0 |
| 20260506151003 | 80 | 308 | 3.0 | 10.0 | 0.00 | 0.00 | 0.00 | 41 | 1002.0 |
| 20260506150003 | 80 | 291 | 3.0 | 9.0 | 0.00 | 0.00 | 0.00 | 40 | 1002.0 |
| 20260506145002 | 81 | 291 | 3.0 | 10.0 | 0.00 | 0.00 | 0.00 | 39 | 1002.0 |
| 20260506144002 | 81 | 303 | 3.0 | 13.0 | 0.00 | 0.00 | 0.00 | 38 | 1002.0 |
| 20260506143002 | 81 | 275 | 3.0 | 7.0 | 0.00 | 0.00 | 0.00 | 38 | 1002.0 |
| 20260506142003 | 81 | 284 | 4.0 | 8.0 | 0.00 | 0.00 | 0.00 | 38 | 1001.0 |
| 20260506141002 | 81 | 285 | 5.0 | 11.0 | 0.00 | 0.00 | 0.00 | 38 | 1002.0 |
| 20260506140002 | 81 | 280 | 2.0 | 8.0 | 0.00 | 0.00 | 0.00 | 38 | 1001.0 |
| 20260506135002 | 81 | 282 | 3.0 | 8.0 | 0.00 | 0.00 | 0.00 | 37 | 1001.0 |
| 20260506134002 | 81 | 258 | 3.0 | 5.0 | 0.00 | 0.00 | 0.00 | 37 | 1001.0 |
| 20260506133002 | 82 | 261 | 4.0 | 8.0 | 0.00 | 0.00 | 0.00 | 37 | 1001.0 |
| 20260506132002 | 82 | 283 | 4.0 | 9.0 | 0.00 | 0.00 | 0.00 | 38 | 1002.0 |
| 20260506131002 | 81 | 270 | 4.0 | 11.0 | 0.00 | 0.00 | 0.00 | 37 | 1002.0 |
| 20260506130003 | 81 | 281 | 3.0 | 8.0 | 0.00 | 0.00 | 0.00 | 37 | 1002.0 |
| 20260506125002 | 81 | 255 | 4.0 | 13.0 | 0.00 | 0.00 | 0.00 | 37 | 1002.0 |
| 20260506124002 | 82 | 233 | 4.0 | 10.0 | 0.00 | 0.00 | 0.00 | 37 | 1002.0 |
| 20260506123003 | 82 | 205 | 3.0 | 8.0 | 0.00 | 0.00 | 0.00 | 40 | 1002.0 |
| 20260506122003 | 82 | 154 | 2.0 | 4.0 | 0.00 | 0.00 | 0.00 | 41 | 1002.0 |
| 20260506121002 | 82 | 128 | 3.0 | 5.0 | 0.00 | 0.00 | 0.00 | 42 | 1002.0 |
| 20260506120002 | 82 | 126 | 3.0 | 5.0 | 0.00 | 0.00 | 0.00 | 43 | 1002.0 |
| 20260506115002 | 81 | 260 | 2.0 | 5.0 | 0.00 | 0.00 | 0.00 | 45 | 1002.0 |
| 20260506114004 | 80 | 128 | 3.0 | 5.0 | 0.00 | 0.00 | 0.00 | 45 | 1002.0 |
| 20260506113002 | 80 | 270 | 2.0 | 5.0 | 0.00 | 0.00 | 0.00 | 46 | 1002.0 |
| 20260506112002 | 80 | 260 | 2.0 | 5.0 | 0.00 | 0.00 | 0.00 | 46 | 1002.0 |
| 20260506111002 | 79 | 145 | 2.0 | 5.0 | 0.00 | 0.00 | 0.00 | 48 | 1003.0 |
| 20260506110002 | 79 | 138 | 2.0 | 5.0 | 0.00 | 0.00 | 0.00 | 50 | 1003.0 |
| 20260506105002 | 78 | 132 | 2.0 | 4.0 | 0.00 | 0.00 | 0.00 | 52 | 1003.0 |
| 20260506104002 | 77 | 135 | 3.0 | 9.0 | 0.00 | 0.00 | 0.00 | 54 | 1003.0 |
| 20260506103002 | 76 | 127 | 2.0 | 5.0 | 0.00 | 0.00 | 0.00 | 57 | 1003.0 |
| 20260506102002 | 75 | 128 | 3.0 | 9.0 | 0.00 | 0.00 | 0.00 | 58 | 1003.0 |
| 20260506101002 | 74 | 128 | 3.0 | 8.0 | 0.00 | 0.00 | 0.00 | 59 | 1003.0 |
| 20260506100002 | 73 | 128 | 2.0 | 4.0 | 0.00 | 0.00 | 0.00 | 61 | 1003.0 |
| 20260506095002 | 72 | 144 | 2.0 | 8.0 | 0.00 | 0.00 | 0.00 | 63 | 1004.0 |
| 20260506094001 | 71 | 119 | 3.0 | 9.0 | 0.00 | 0.00 | 0.00 | 63 | 1004.0 |
| 20260506093003 | 71 | 122 | 4.0 | 6.0 | 0.00 | 0.00 | 0.00 | 64 | 1004.0 |
| 20260506092003 | 70 | 120 | 2.0 | 6.0 | 0.00 | 0.00 | 0.00 | 65 | 1004.0 |
| 20260506091002 | 70 | 131 | 3.0 | 7.0 | 0.00 | 0.00 | 0.00 | 65 | 1004.0 |
| 20260506090003 | 70 | 127 | 4.0 | 8.0 | 0.00 | 0.00 | 0.00 | 65 | 1004.0 |
| 20260506085002 | 70 | 120 | 2.0 | 5.0 | 0.00 | 0.00 | 0.00 | 65 | 1004.0 |
| 20260506084002 | 69 | 119 | 3.0 | 6.0 | 0.00 | 0.00 | 0.00 | 66 | 1004.0 |
| 20260506083003 | 69 | 132 | 3.0 | 6.0 | 0.00 | 0.00 | 0.00 | 66 | 1004.0 |
| 20260506082005 | 69 | 125 | 3.0 | 5.0 | 0.00 | 0.00 | 0.00 | 65 | 1004.0 |
| 20260506081002 | 67 | 125 | 3.0 | 6.0 | 0.00 | 0.00 | 0.00 | 65 | 1004.0 |
| 20260506073003 | 61 | 134 | 3.0 | 7.0 | 0.00 | 0.00 | 0.00 | 63 | 1004.0 |
| 20260506072003 | 61 | 130 | 4.0 | 8.0 | 0.00 | 0.00 | 0.00 | 63 | 1004.0 |
| 20260506071005 | 60 | 132 | 3.0 | 6.0 | 0.00 | 0.00 | 0.00 | 66 | 1004.0 |
| 20260506062008 | 57 | 139 | 5.0 | 9.0 | 0.00 | 0.00 | 0.00 | 79 | 1005.0 |
| 20260506061005 | 56 | 126 | 3.0 | 8.0 | 0.00 | 0.00 | 0.00 | 78 | 1005.0 |
| 20260506051005 | 54 | 126 | 4.0 | 7.0 | 0.00 | 0.00 | 0.00 | 75 | 1005.0 |
| 20260506045003 | 53 | 122 | 4.0 | 9.0 | 0.00 | 0.00 | 0.00 | 72 | 1005.0 |
| 20260506044005 | 52 | 119 | 5.0 | 10.0 | 0.00 | 0.00 | 0.00 | 76 | 1005.0 |
| 20260506043007 | 52 | 120 | 4.0 | 8.0 | 0.00 | 0.00 | 0.00 | 82 | 1005.0 |